Total_Precipitation_Accumulation
0.11 0.11 0.12 0.12 0.12 0.14 0.14 0.16 0.17 0.16 0.16 0.16 0.17 0.18 0.21 0.23 0.21 0.17 0.14 0.12 0.08 0.09 0.15 0.30 0.55 0.81 1.02 1.13 1.14 1.00 0.93 0.80 0.64 0.55 0.52 0.60 0.63 0.62 0.66 0.76 0.73 0.62 0.58
0.04 0.03 0.03 0.03 0.02 0.02 0.02 0.03 0.04 0.05 0.06 0.08 0.09 0.11 0.13 0.16 0.18 0.19 0.19 0.21 0.16 0.13 0.14 0.20 0.34 0.57 0.88 1.11 1.22 1.19 1.06 0.98 0.81 0.64 0.56 0.56 0.62 0.62 0.62 0.68 0.76 0.73 0.62
0.02 0.02 0.02 0.01 0.01 0.00 0.00 0.00 0.01 0.01 0.01 0.02 0.03 0.05 0.07 0.08 0.12 0.15 0.18 0.22 0.23 0.20 0.17 0.20 0.27 0.42 0.71 1.02 1.20 1.34 1.26 1.12 1.01 0.87 0.68 0.57 0.59 0.64 0.63 0.65 0.72 0.79 0.76
0.01 0.01 0.01 0.01 0.01 0.01 0.01 0.01 0.01 0.01 0.01 0.02 0.02 0.03 0.06 0.07 0.06 0.09 0.14 0.16 0.19 0.21 0.20 0.20 0.28 0.42 0.60 0.86 1.13 1.39 1.50 1.34 1.25 1.19 1.00 0.77 0.62 0.64 0.66 0.65 0.71 0.79 0.87
0.01 0.01 0.02 0.01 0.01 0.02 0.02 0.03 0.03 0.02 0.02 0.02 0.02 0.02 0.02 0.04 0.05 0.08 0.11 0.14 0.17 0.18 0.20 0.21 0.25 0.34 0.48 0.70 1.04 1.39 1.73 1.76 1.59 1.47 1.31 1.12 0.89 0.72 0.71 0.69 0.72 0.80 0.89
0.01 0.01 0.02 0.01 0.01 0.01 0.02 0.02 0.02 0.02 0.02 0.02 0.02 0.01 0.00 0.01 0.02 0.05 0.07 0.12 0.16 0.17 0.19 0.24 0.27 0.25 0.27 0.39 0.63 1.01 1.39 1.73 1.81 1.72 1.61 1.43 1.22 0.99 0.85 0.78 0.77 0.84 0.95
0.01 0.01 0.01 0.01 0.01 0.01 0.02 0.02 0.02 0.03 0.02 0.02 0.02 0.01 0.00 0.00 0.01 0.02 0.07 0.12 0.17 0.23 0.29 0.34 0.40 0.38 0.30 0.29 0.32 0.46 0.80 1.30 1.66 1.83 1.83 1.78 1.55 1.30 1.09 0.94 0.89 0.93 1.00
0.01 0.01 0.01 0.01 0.01 0.01 0.01 0.01 0.02 0.05 0.04 0.03 0.07 0.11 0.05 0.01 0.00 0.01 0.04 0.09 0.17 0.27 0.39 0.44 0.49 0.50 0.46 0.36 0.25 0.25 0.37 0.73 1.28 1.75 1.90 1.91 1.96 1.75 1.39 1.16 1.03 1.05 1.11
0.01 0.00 0.01 0.01 0.01 0.01 0.01 0.01 0.02 0.04 0.06 0.04 0.07 0.24 0.32 0.16 0.05 0.00 0.01 0.04 0.08 0.12 0.20 0.29 0.36 0.41 0.47 0.48 0.39 0.30 0.28 0.43 0.79 1.40 1.90 2.01 2.05 2.14 1.91 1.49 1.23 1.14 1.18
0.01 0.01 0.01 0.01 0.01 0.01 0.02 0.02 0.03 0.05 0.11 0.12 0.08 0.12 0.22 0.27 0.29 0.13 0.01 0.02 0.02 0.04 0.06 0.10 0.16 0.23 0.34 0.44 0.48 0.43 0.36 0.37 0.57 0.94 1.58 2.11 2.17 2.26 2.36 2.02 1.59 1.34 1.26
0.01 0.01 0.01 0.01 0.01 0.01 0.02 0.03 0.04 0.06 0.12 0.17 0.17 0.15 0.14 0.13 0.19 0.28 0.12 0.02 0.03 0.03 0.03 0.05 0.07 0.10 0.16 0.27 0.36 0.43 0.45 0.40 0.50 0.71 1.07 1.71 2.30 2.47 2.57 2.45 2.00 1.58 1.35
0.01 0.01 0.01 0.01 0.01 0.02 0.03 0.04 0.07 0.09 0.11 0.15 0.18 0.20 0.24 0.26 0.20 0.26 0.22 0.07 0.03 0.03 0.04 0.05 0.06 0.07 0.10 0.16 0.23 0.35 0.43 0.44 0.45 0.56 0.69 1.07 1.81 2.47 2.69 2.59 2.29 1.91 1.55
0.01 0.01 0.01 0.02 0.02 0.03 0.05 0.07 0.10 0.11 0.13 0.17 0.20 0.21 0.22 0.22 0.21 0.26 0.30 0.17 0.07 0.03 0.03 0.05 0.06 0.09 0.11 0.14 0.18 0.25 0.32 0.39 0.45 0.50 0.51 0.58 0.96 1.78 2.57 2.81 2.56 2.20 1.89
0.02 0.01 0.01 0.02 0.03 0.05 0.08 0.11 0.13 0.14 0.16 0.19 0.20 0.21 0.23 0.19 0.22 0.26 0.33 0.37 0.28 0.09 0.03 0.04 0.05 0.08 0.11 0.13 0.15 0.19 0.20 0.27 0.35 0.42 0.44 0.47 0.54 0.90 1.68 2.61 3.14 2.82 2.32
0.02 0.01 0.02 0.04 0.05 0.08 0.11 0.13 0.16 0.18 0.21 0.23 0.24 0.24 0.27 0.25 0.25 0.26 0.29 0.39 0.54 0.38 0.10 0.03 0.05 0.06 0.09 0.13 0.17 0.18 0.17 0.20 0.27 0.35 0.38 0.41 0.47 0.57 0.89 1.57 2.53 3.21 3.09
0.02 0.02 0.04 0.07 0.11 0.15 0.17 0.19 0.21 0.21 0.25 0.27 0.29 0.30 0.31 0.32 0.31 0.31 0.32 0.33 0.41 0.49 0.30 0.06 0.06 0.07 0.10 0.12 0.17 0.18 0.19 0.21 0.23 0.28 0.33 0.36 0.41 0.51 0.67 0.97 1.57 2.49 3.09
0.03 0.04 0.07 0.10 0.15 0.21 0.25 0.29 0.30 0.31 0.32 0.30 0.31 0.35 0.36 0.36 0.36 0.34 0.35 0.36 0.35 0.41 0.41 0.11 0.04 0.07 0.13 0.16 0.18 0.18 0.19 0.18 0.16 0.20 0.27 0.34 0.40 0.48 0.60 0.79 1.06 1.66 2.53
0.06 0.08 0.12 0.17 0.21 0.25 0.29 0.37 0.43 0.45 0.48 0.47 0.45 0.45 0.46 0.47 0.49 0.47 0.47 0.43 0.38 0.36 0.42 0.27 0.08 0.07 0.14 0.21 0.27 0.26 0.22 0.19 0.16 0.16 0.21 0.29 0.36 0.43 0.55 0.69 0.87 1.16 1.75
0.10 0.15 0.22 0.30 0.35 0.37 0.39 0.40 0.51 0.64 0.72 0.74 0.74 0.73 0.70 0.67 0.68 0.66 0.64 0.56 0.46 0.37 0.37 0.35 0.19 0.10 0.14 0.23 0.34 0.35 0.30 0.23 0.17 0.18 0.21 0.25 0.31 0.37 0.45 0.57 0.71 0.88 1.15
0.21 0.28 0.36 0.46 0.53 0.62 0.74 0.75 0.74 0.69 0.71 0.79 0.84 0.87 0.93 0.96 0.96 0.92 0.89 0.74 0.59 0.50 0.44 0.43 0.33 0.21 0.18 0.25 0.43 0.48 0.43 0.34 0.25 0.20 0.23 0.25 0.30 0.36 0.39 0.41 0.47 0.61 0.87
0.28 0.36 0.40 0.42 0.45 0.67 1.12 1.29 1.01 0.65 0.55 0.56 0.60 0.63 0.75 0.92 1.05 1.13 1.17 1.02 0.88 0.82 0.71 0.64 0.52 0.41 0.32 0.37 0.51 0.58 0.63 0.56 0.46 0.35 0.28 0.23 0.24 0.26 0.27 0.31 0.40 0.51 0.69
0.20 0.31 0.37 0.34 0.34 0.55 1.02 1.16 0.78 0.47 0.41 0.40 0.41 0.41 0.46 0.62 0.75 0.87 1.02 1.08 1.14 1.20 1.13 0.97 0.79 0.64 0.47 0.43 0.52 0.70 0.77 0.84 0.77 0.54 0.46 0.38 0.32 0.30 0.27 0.25 0.31 0.41 0.58
0.14 0.18 0.21 0.19 0.22 0.42 0.80 0.90 0.58 0.30 0.24 0.23 0.24 0.25 0.26 0.35 0.49 0.53 0.63 0.75 0.90 1.06 1.20 1.19 1.12 0.85 0.62 0.52 0.63 0.79 0.86 0.93 0.85 0.71 0.73 0.71 0.56 0.45 0.36 0.35 0.39 0.42 0.51
0.12 0.14 0.12 0.09 0.09 0.22 0.60 0.78 0.51 0.24 0.17 0.16 0.19 0.17 0.16 0.21 0.36 0.47 0.57 0.58 0.59 0.75 1.00 1.18 1.28 1.10 0.84 0.74 0.87 1.05 1.15 1.14 0.99 0.93 0.96 1.00 0.76 0.61 0.55 0.50 0.48 0.44 0.45
0.10 0.12 0.10 0.06 0.05 0.10 0.43 0.76 0.58 0.24 0.16 0.14 0.15 0.17 0.15 0.15 0.32 0.48 0.50 0.44 0.40 0.50 0.65 0.90 1.10 1.13 1.07 1.05 1.12 1.33 1.44 1.48 1.37 1.14 1.11 1.17 1.01 0.80 0.73 0.73 0.66 0.54 0.46
0.05 0.07 0.07 0.05 0.03 0.05 0.24 0.68 0.73 0.31 0.19 0.15 0.14 0.14 0.22 0.27 0.37 0.43 0.41 0.42 0.46 0.43 0.43 0.49 0.57 0.66 0.71 0.73 0.92 1.17 1.31 1.43 1.44 1.47 1.28 1.21 1.25 1.17 1.20 0.97 0.77 0.56 0.46